Home > Weather > Oakville > Past weeks

Flag for Canada Past Weather in Oakville, Ontario, Canada — Yesterday and Last 2 Weeks

Now
61 °F

Cool.


Feels Like: 61 °F
Forecast: 56 / 78 °F
Wind: 5 mph from West

Location: Burlington Piers

Current Time: Jun 30, 2016 at 4:48:54 AM

Latest Report: Jun 30, 2016 at 4:00 AM


Visibility: N/A

Pressure: 30.02 "Hg

Humidity: 62%

Dew Point: 48 °F

Location of OakvilleLocation

Past Weather in Oakville — Graph

°F

Oakville Temperature Yesterday

Maximum temperature yesterday: 78 °F (at 7:00 PM)
Minimum temperature yesterday: 58 °F (at 7:00 AM)
Average temperature yesterday: 67 °F

High & Low Weather Summary for the Past Weeks

 TemperatureHumidityPressure
High88 °F (Jun 19, 4:00 PM)90% (Jun 26, 4:00 AM)30.27 "Hg (Jun 26, 4:00 AM)
Low56 °F (Jun 15, 9:00 AM)26% (Jun 19, 5:00 PM)29.72 "Hg (Jun 16, 3:00 PM)
Average70 °F56%29.96 "Hg
* Reported Jun 15 3:00 AM — Jun 30 3:00 AM, Oakville, Weather by CustomWeather, © 2016

Note: Actual official high and low records may vary slightly from our data, if they occured in-between our weather recording intervals... More about our weather records

Advertising

Oakville Weather History for the Previous 24 Hours

Scroll right to see more
 ConditionsComfort  
Time TempWeatherWind HumidityBarometerVisibility
3:00 AM
Thu, Jun 30
63 °FMild.6 mph60%30.02 "HgN/A
2:00 AM65 °FMild.5 mph56%30.02 "HgN/A
1:00 AM67 °FMild.5 mph53%30.01 "HgN/A
12:00 AM67 °FMild.6 mph45%30.01 "HgN/A
11:00 PM
Wed, Jun 29
70 °FMild.6 mph44%30.00 "HgN/A
10:00 PM72 °FMild.10 mph39%29.98 "HgN/A
9:00 PM75 °FMild.7 mph32%29.96 "HgN/A
8:00 PM77 °FPleasantly warm.8 mph30%29.95 "HgN/A
7:00 PM78 °FPleasantly warm.6 mph28%29.95 "HgN/A
6:00 PM78 °FPleasantly warm.2 mph33%29.95 "HgN/A
5:00 PM70 °FMild.9 mph51%29.96 "HgN/A
4:00 PM70 °FMild.10 mph53%29.96 "HgN/A
3:00 PM67 °FMild.10 mph67%29.97 "HgN/A
2:00 PM67 °FMild.12 mph65%29.98 "HgN/A
1:00 PM67 °FMild.10 mph70%29.99 "HgN/A
12:00 PM66 °FMild.6 mph68%30.00 "HgN/A
11:00 AM68 °FMild.10 mph55%29.98 "HgN/A
10:00 AM66 °FMild.10 mph59%29.99 "HgN/A
9:00 AM64 °FMild.6 mph65%30.01 "HgN/A
8:00 AM61 °FCool.7 mph67%30.00 "HgN/A
7:00 AM58 °FCool.7 mph71%29.98 "HgN/A
6:00 AM59 °FCool.5 mph70%29.98 "HgN/A
5:00 AM59 °FCool.6 mph68%29.97 "HgN/A
4:00 AM59 °FCool.6 mph66%29.97 "HgN/A
Weather by CustomWeather, © 2016

See weather overviewHow to use our weather pages